EW4792 Weather Reports


Display with metric or nautical units.
time (UTC)temp
F
wind
direction
speed
MPH
gust
MPH
rain 1hr
in
rain 24hr
in
rain mn
in
humidity
%
barometer
mb
20260503021639 66 103 3.0 5.0 0.00 0.01 0.01 62 1022.0
20260503021136 66 104 3.0 6.0 0.00 0.01 0.01 62 1021.8
20260503020648 66 97 4.0 6.0 0.00 0.01 0.01 61 1021.8
20260503020146 66 101 3.0 5.0 0.00 0.01 0.01 60 1021.7
20260503015622 66 101 3.0 5.0 0.00 0.01 0.01 60 1021.4
20260503015123 66 110 4.0 5.0 0.00 0.01 0.01 60 1021.4
20260503014623 67 110 2.0 4.0 0.00 0.01 0.01 59 1021.4
20260503014138 67 110 2.0 3.0 0.00 0.01 0.01 58 1021.3
20260503013654 67 110 2.0 3.0 0.00 0.01 0.01 58 1021.3
20260503013157 68 110 2.0 2.0 0.00 0.01 0.01 57 1021.3
20260503012646 68 110 1.0 4.0 0.00 0.01 0.01 57 1021.3
20260503012142 69 110 1.0 4.0 0.00 0.01 0.01 56 1021.2
20260503011640 69 110 2.0 4.0 0.00 0.01 0.01 54 1021.2
20260503011139 69 110 2.0 3.0 0.00 0.01 0.01 53 1021.1
20260503010637 70 110 1.0 5.0 0.00 0.01 0.01 53 1021.1
20260503010132 70 110 2.0 6.0 0.00 0.01 0.01 53 1021.2
20260503005627 71 110 4.0 7.0 0.00 0.01 0.01 51 1021.1
20260503005125 71 111 5.0 7.0 0.00 0.01 0.01 51 1021.2
20260503004700 71 121 5.0 7.0 0.00 0.01 0.01 51 1021.2
20260503004121 72 116 5.0 9.0 0.00 0.01 0.01 52 1021.2
20260503003618 72 124 6.0 9.0 0.00 0.01 0.01 50 1021.1
20260503003132 72 109 6.0 11.0 0.00 0.01 0.01 50 1021.2
20260503002613 72 141 7.0 11.0 0.00 0.01 0.01 48 1021.2
20260503002156 72 108 8.0 11.0 0.00 0.01 0.01 48 1021.1
20260503001654 72 96 8.0 11.0 0.00 0.01 0.01 47 1021.3
20260503001204 72 93 8.0 11.0 0.00 0.01 0.01 46 1021.0
20260503000621 72 95 7.0 10.0 0.00 0.01 0.01 46 1021.0
20260503000117 73 105 4.0 8.0 0.00 0.01 0.01 45 1021.2
20260502235723 73 95 4.0 10.0 0.00 0.01 0.01 45 1021.1
20260502235153 73 69 7.0 10.0 0.00 0.01 0.01 45 1021.0
20260502234648 73 78 5.0 10.0 0.00 0.01 0.01 45 1020.9
20260502234140 73 24 4.0 9.0 0.00 0.01 0.01 45 1020.9
20260502233209 73 87 2.0 11.0 0.00 0.01 0.01 44 1020.9
20260502232708 73 20 6.0 14.0 0.00 0.01 0.01 43 1020.8
20260502232204 73 78 8.0 14.0 0.00 0.01 0.01 44 1020.9
20260502231706 73 43 4.0 13.0 0.00 0.01 0.01 44 1020.9
20260502231203 73 86 8.0 13.0 0.00 0.01 0.01 44 1021.0
20260502230658 73 68 4.0 10.0 0.00 0.01 0.01 44 1020.9
20260502230156 73 116 5.0 10.0 0.00 0.01 0.01 44 1020.6
20260502225649 73 67 3.0 9.0 0.00 0.01 0.01 45 1020.7
20260502225142 73 77 4.0 9.0 0.00 0.01 0.01 44 1020.6
20260502224206 73 10 7.0 15.0 0.00 0.01 0.01 44 1020.7
20260502223703 73 79 7.0 15.0 0.00 0.01 0.01 45 1020.5
20260502223157 72 46 3.0 11.0 0.00 0.01 0.01 47 1020.5
20260502222702 73 91 3.0 11.0 0.00 0.01 0.01 47 1020.5
20260502222136 73 42 6.0 11.0 0.00 0.01 0.01 45 1020.8
20260502221635 73 54 6.0 19.0 0.00 0.01 0.01 46 1020.8
20260502221150 72 15 7.0 19.0 0.00 0.01 0.01 47 1020.8
20260502220645 72 43 7.0 13.0 0.00 0.01 0.01 48 1020.7
20260502220117 72 112 5.0 15.0 0.00 0.01 0.01 49 1020.9
20260502215613 72 101 9.0 15.0 0.00 0.09 0.01 50 1021.0
20260502215208 72 111 6.0 10.0 0.00 0.09 0.01 46 1021.1
20260502214705 72 49 4.0 8.0 0.00 0.09 0.01 48 1021.1
20260502214200 72 36 1.0 12.0 0.00 0.09 0.01 49 1021.0
20260502213621 72 59 7.0 15.0 0.00 0.09 0.01 49 1021.1
20260502213132 72 98 6.0 15.0 0.00 0.09 0.01 50 1021.1
20260502212650 72 61 8.0 15.0 0.00 0.09 0.01 50 1021.2
20260502212148 72 53 5.0 14.0 0.00 0.09 0.01 50 1021.2
20260502211708 72 345 8.0 19.0 0.00 0.09 0.01 50 1021.3
20260502211202 72 97 9.0 19.0 0.00 0.09 0.01 51 1021.5
20260502210644 72 113 5.0 12.0 0.00 0.09 0.01 52 1021.4
20260502210121 71 28 6.0 18.0 0.00 0.09 0.01 52 1021.5
20260502205643 71 50 8.0 18.0 0.00 0.16 0.01 51 1021.7
20260502205139 72 62 8.0 15.0 0.00 0.16 0.01 51 1021.7
20260502204641 71 1 7.0 14.0 0.00 0.16 0.01 53 1021.7
20260502204123 71 55 3.0 13.0 0.00 0.16 0.01 52 1021.6
20260502203620 71 64 7.0 14.0 0.00 0.16 0.01 52 1021.7
20260502203143 71 101 5.0 14.0 0.00 0.16 0.01 54 1021.7
20260502202701 71 10 5.0 14.0 0.00 0.16 0.01 53 1021.9
20260502202152 71 59 9.0 15.0 0.00 0.16 0.01 52 1021.9
20260502201626 70 99 9.0 15.0 0.00 0.16 0.01 54 1022.0
20260502201122 70 303 7.0 13.0 0.00 0.16 0.01 55 1022.0
20260502200707 70 122 5.0 16.0 0.00 0.16 0.01 54 1022.0
20260502200120 70 75 8.0 15.0 0.00 0.16 0.01 55 1022.0
20260502195722 70 355 3.0 15.0 0.00 0.17 0.01 56 1022.2
20260502195157 69 312 2.0 11.0 0.00 0.17 0.01 56 1022.1
20260502194657 69 49 4.0 15.0 0.00 0.17 0.01 56 1022.3
20260502194152 69 78 4.0 14.0 0.00 0.17 0.01 58 1022.4
20260502193627 69 73 8.0 14.0 0.00 0.17 0.01 56 1022.2
20260502193127 69 89 6.0 13.0 0.00 0.17 0.01 57 1022.5
20260502192626 69 2 4.0 15.0 0.00 0.17 0.01 58 1022.6
20260502192133 69 314 6.0 15.0 0.00 0.17 0.01 57 1022.4
20260502191203 69 10 7.0 15.0 0.00 0.17 0.01 58 1022.4
20260502190639 68 20 5.0 10.0 0.00 0.17 0.01 60 1022.4
20260502185709 68 34 4.0 14.0 0.00 0.18 0.01 61 1022.6
20260502185205 68 58 6.0 14.0 0.00 0.18 0.01 60 1022.5
20260502184207 68 39 6.0 15.0 0.00 0.18 0.01 61 1022.5
20260502183707 68 105 6.0 12.0 0.00 0.18 0.01 61 1022.5
20260502183201 67 65 8.0 13.0 0.00 0.18 0.01 62 1022.8
20260502182654 67 10 7.0 13.0 0.00 0.18 0.01 62 1022.8
20260502182147 67 53 6.0 11.0 0.00 0.18 0.01 63 1022.9
20260502181646 67 20 3.0 16.0 0.00 0.18 0.01 64 1022.9
20260502181143 67 91 6.0 16.0 0.00 0.18 0.01 64 1022.9
20260502180640 66 263 2.0 12.0 0.00 0.18 0.01 65 1023.0
20260502180115 66 91 6.0 15.0 0.00 0.18 0.01 65 1023.0
20260502170231 65 83 3.0 12.0 0.00 0.33 0.01 68 1024.1
20260502164205 64 33 7.0 13.0 0.00 0.35 0.01 68 1024.1
20260502163701 64 91 5.0 13.0 0.00 0.35 0.01 69 1024.1
20260502163200 64 76 9.0 13.0 0.00 0.35 0.01 68 1024.1
20260502162700 63 64 6.0 12.0 0.00 0.35 0.01 69 1024.1
20260502162140 63 346 7.0 12.0 0.00 0.35 0.01 71 1024.2
20260502161635 63 58 6.0 13.0 0.00 0.35 0.01 71 1024.1
20260502161135 63 42 8.0 13.0 0.00 0.35 0.01 70 1024.0
20260502160629 63 90 5.0 14.0 0.00 0.35 0.01 72 1024.0
20260502152140 61 93 6.0 15.0 0.00 0.38 0.01 79 1023.4
20260502151635 60 61 7.0 12.0 0.00 0.38 0.01 80 1023.4
20260502151155 60 70 7.0 12.0 0.00 0.38 0.01 80 1023.6
20260502150615 60 24 6.0 10.0 0.00 0.38 0.01 81 1023.4
20260502150129 60 41 5.0 13.0 0.00 0.38 0.01 81 1023.4
20260502130620 53 339 3.0 9.0 0.00 0.43 0.00 91 1022.4
20260502130143 52 357 4.0 9.0 0.00 0.43 0.00 91 1022.4
20260502123630 51 353 5.0 9.0 0.00 0.44 0.00 91 1021.6
20260502123125 51 355 4.0 8.0 0.00 0.44 0.00 91 1021.6
20260502122728 51 335 4.0 8.0 0.00 0.44 0.00 91 1021.5
20260502122201 51 332 5.0 7.0 0.00 0.44 0.00 91 1021.5
20260502121657 51 330 5.0 7.0 0.00 0.44 0.00 91 1021.4
20260502120707 51 329 3.0 7.0 0.00 0.44 0.00 91 1021.3
20260502120206 51 338 3.0 7.0 0.00 0.44 0.00 91 1021.2
20260502115706 51 324 5.0 7.0 0.00 0.55 0.00 91 1021.3
20260502115202 51 332 5.0 7.0 0.00 0.55 0.00 91 1021.3
20260502114703 51 328 5.0 7.0 0.00 0.55 0.00 91 1021.1
20260502114156 51 345 5.0 7.0 0.00 0.55 0.00 91 1021.1
20260502113651 51 343 5.0 7.0 0.00 0.55 0.00 91 1021.1
20260502113155 52 335 4.0 7.0 0.00 0.55 0.00 91 1021.2
20260502112655 52 340 4.0 6.0 0.00 0.55 0.00 91 1021.2
20260502112145 52 333 4.0 6.0 0.00 0.55 0.00 90 1021.1
20260502111629 52 322 4.0 6.0 0.00 0.55 0.00 91 1021.0
20260502111226 52 324 3.0 5.0 0.00 0.55 0.00 91 1021.1
20260502110700 52 336 2.0 6.0 0.00 0.55 0.00 91 1021.1
20260502110200 52 337 3.0 6.0 0.00 0.55 0.00 91 1021.1
20260502105704 52 345 3.0 5.0 0.00 0.68 0.00 91 1021.1
20260502105200 52 346 2.0 5.0 0.00 0.68 0.00 90 1020.9
20260502104700 52 346 2.0 5.0 0.00 0.68 0.00 91 1020.8
20260502104157 53 336 2.0 4.0 0.00 0.68 0.00 91 1020.8
20260502103655 53 335 0.0 4.0 0.00 0.68 0.00 91 1020.8
20260502103150 53 335 1.0 3.0 0.00 0.68 0.00 91 1020.7
20260502102647 53 335 1.0 3.0 0.00 0.68 0.00 91 1020.6
20260502102146 53 335 1.0 4.0 0.00 0.68 0.00 91 1020.6
20260502101640 53 335 2.0 4.0 0.00 0.68 0.00 91 1020.6
20260502101140 53 335 1.0 4.0 0.00 0.68 0.00 91 1020.4
20260502100637 53 335 1.0 5.0 0.00 0.68 0.00 91 1020.4
20260502100143 53 335 1.0 6.0 0.00 0.68 0.00 91 1020.4
20260502091125 52 309 4.0 6.0 0.00 0.82 0.00 91 1019.3
20260502090630 52 334 3.0 7.0 0.00 0.82 0.00 91 1019.1
20260502090141 52 349 5.0 7.0 0.00 0.82 0.00 91 1019.1
20260502071136 54 328 0.0 2.0 0.00 1.07 0.00 90 1018.8
20260502070614 54 328 0.0 6.0 0.00 1.07 0.00 90 1018.8
20260502070114 54 328 0.0 6.0 0.00 1.07 0.00 90 1018.9
20260502065629 54 332 2.0 5.0 0.00 1.21 0.00 90 1018.9
20260502065122 54 355 1.0 5.0 0.00 1.21 0.00 91 1018.8
20260502064636 54 321 1.0 5.0 0.00 1.21 0.00 91 1018.8
20260502064128 54 331 1.0 4.0 0.00 1.21 0.00 91 1018.8
20260502063621 54 355 2.0 4.0 0.00 1.21 0.00 91 1018.7
20260502063112 54 355 0.0 5.0 0.00 1.21 0.00 91 1018.7
20260502062626 54 355 1.0 5.0 0.00 1.21 0.00 91 1018.8
20260502062122 54 323 1.0 6.0 0.00 1.21 0.00 91 1018.9
20260502061617 54 352 1.0 6.0 0.00 1.21 0.00 90 1018.8
20260502061148 54 347 0.0 5.0 0.00 1.21 0.00 90 1018.8
20260502060623 54 10 1.0 7.0 0.00 1.21 0.00 90 1018.9
20260502060116 54 20 2.0 7.0 0.00 1.21 0.00 90 1018.9
20260502055630 54 10 2.0 6.0 0.00 1.28 0.00 90 1018.8
20260502055124 54 5 2.0 7.0 0.00 1.28 0.00 90 1018.9
20260502054618 54 15 4.0 7.0 0.00 1.28 0.00 90 1018.9
20260502054112 54 347 2.0 6.0 0.00 1.28 0.00 90 1019.0
20260502053627 54 357 2.0 6.0 0.00 1.28 0.00 90 1019.1
20260502053140 54 357 3.0 7.0 0.00 1.28 0.00 90 1019.2
20260502052612 54 352 3.0 7.0 0.00 1.28 0.00 90 1019.4
20260502052125 54 328 4.0 7.0 0.00 1.28 0.00 90 1019.3
20260502051619 55 3 3.0 7.0 0.00 1.28 0.00 90 1019.2
20260502051113 55 341 4.0 7.0 0.00 1.28 0.00 90 1019.2
20260502050625 55 322 2.0 7.0 0.00 1.28 0.00 90 1019.2
20260502050138 55 352 4.0 9.0 0.00 1.28 0.00 90 1019.0
20260502045614 55 359 4.0 9.0 0.00 1.28 1.28 90 1018.9
20260502045158 55 10 1.0 6.0 0.00 1.28 1.28 90 1018.8
20260502044205 55 83 3.0 7.0 0.00 1.28 1.28 90 1018.9
20260502043658 55 30 2.0 6.0 0.00 1.28 1.28 90 1018.7
20260502043134 55 342 2.0 6.0 0.00 1.28 1.28 90 1018.8
20260502042730 55 15 0.0 6.0 0.00 1.28 1.28 90 1018.8
20260502042203 55 15 2.0 5.0 0.00 1.28 1.28 90 1018.7
20260502041206 55 39 3.0 9.0 0.00 1.28 1.28 90 1018.6
20260502040701 55 344 2.0 8.0 0.00 1.28 1.28 90 1018.6
20260502040135 55 356 0.0 10.0 0.00 1.28 1.28 90 1018.6
20260502035614 55 1 3.0 11.0 0.00 1.28 1.28 90 1018.6
20260502035111 55 38 3.0 11.0 0.00 1.28 1.28 90 1018.6
20260502034728 55 24 3.0 11.0 0.00 1.28 1.28 90 1018.4
20260502034159 55 42 3.0 14.0 0.00 1.28 1.28 90 1018.3
20260502033639 55 346 5.0 14.0 0.00 1.28 1.28 90 1018.4
20260502032728 55 33 4.0 10.0 0.00 1.28 1.28 90 1018.4
20260502032120 55 1 6.0 15.0 0.00 1.28 1.28 90 1018.4
20260502031637 55 5 7.0 15.0 0.00 1.28 1.28 90 1018.4
20260502031135 55 20 5.0 11.0 0.00 1.28 1.28 90 1018.3
20260502030639 55 15 4.0 9.0 0.00 1.28 1.28 90 1018.3
20260502025620 55 15 4.0 8.0 0.00 1.28 1.28 90 1018.1
20260502025120 54 342 3.0 8.0 0.00 1.28 1.28 90 1017.9
20260502024725 55 37 5.0 13.0 0.00 1.28 1.28 90 1017.9
20260502024159 55 43 6.0 16.0 0.00 1.28 1.28 90 1017.6
20260502023613 55 20 6.0 16.0 0.00 1.28 1.28 90 1017.4
20260502023120 55 51 5.0 12.0 0.00 1.28 1.28 90 1017.5
20260502022641 55 20 5.0 21.0 0.00 1.28 1.28 90 1017.3
20260502022141 55 352 7.0 21.0 0.00 1.28 1.28 90 1017.4